User: anonymous   Login
Location: Vallejo Observatory
(38.1221°N, 122.2109°W)
Time: 08:34:40
(UTC-07:00)
Language:

MOS 1 Rocket - Orbit

View from above orbital plane
View from above orbital plane
View from above satellite
View from above satellite

Ground track
Ground track

The orbit data is extracted from the following two-line orbital elements,

1 17528U 87018B   15117.21885588  .00000336  00000-0  83910-4 0  9994
2 17528 097.4203 155.3933 0152123 229.0373 181.6308 14.50384599486518
Epoch (UTC): 27 April 2015 05:15:09
Eccentricity: 0.0152123
inclination: 97.4203°
perigee height: 616 km
apogee height: 832 km
right ascension of ascending node: 155.3933°
argument of perigee: 229.0373°
revolutions per day: 14.50384599
mean anomaly at epoch: 181.6308°
orbit number at epoch: 48651

The dashed part of the orbit path shows where the satellite is in the earth's shadow,  

DLR